Time,TemperatureF,DewpointF,PressureIn,WindDirection,WindDirectionDegrees,WindSpeedMPH,WindSpeedGustMPH,Humidity,HourlyPrecipIn,Conditions,Clouds,dailyrainin,SoftwareType,DateUTC
2013-01-30 00:03:00,53.2,50.7,29.59,WNW,292,0.0,0.0,91,0.14,RA,,0.00,WeatherDisplay:10.37,2013-01-30 06:03:00,
2013-01-30 00:08:00,53.1,50.5,29.58,WNW,292,0.0,0.0,91,0.14,RA,,0.02,WeatherDisplay:10.37,2013-01-30 06:08:00,
2013-01-30 00:13:00,53.1,50.8,29.58,WNW,292,0.0,0.0,92,0.12,RA,,0.02,WeatherDisplay:10.37,2013-01-30 06:13:00,
2013-01-30 00:18:00,53.1,50.8,29.57,WNW,292,0.0,0.0,92,0.12,RA,,0.04,WeatherDisplay:10.37,2013-01-30 06:18:00,
2013-01-30 00:23:00,52.9,50.3,29.57,WNW,292,0.0,0.0,91,0.12,RA,,0.04,WeatherDisplay:10.37,2013-01-30 06:23:00,
2013-01-30 00:28:00,52.9,50.6,29.57,WNW,292,0.0,0.0,92,0.10,CLR,,0.04,WeatherDisplay:10.37,2013-01-30 06:28:00,
2013-01-30 00:33:00,52.5,50.0,29.58,WNW,292,0.0,0.0,91,0.08,CLR,,0.04,WeatherDisplay:10.37,2013-01-30 06:33:00,
2013-01-30 00:38:00,52.3,50.1,29.57,WNW,292,0.0,0.0,92,0.08,RA,,0.06,WeatherDisplay:10.37,2013-01-30 06:38:00,
2013-01-30 00:43:00,52.2,49.9,29.57,WNW,292,0.0,0.0,92,0.08,RA,,0.06,WeatherDisplay:10.37,2013-01-30 06:43:00,
2013-01-30 00:48:00,52.0,49.7,29.57,WNW,292,0.0,0.0,92,0.06,CLR,,0.06,WeatherDisplay:10.37,2013-01-30 06:48:00,
2013-01-30 00:53:00,51.8,49.5,29.57,WNW,292,0.0,0.0,92,0.08,RA,,0.08,WeatherDisplay:10.37,2013-01-30 06:53:00,
2013-01-30 00:58:00,51.6,49.4,29.57,WNW,292,0.0,0.0,92,0.08,RA,,0.08,WeatherDisplay:10.37,2013-01-30 06:58:00,
2013-01-30 01:03:00,51.8,49.5,29.57,SSW,202,0.0,0.0,92,0.08,,,0.08,WeatherDisplay:10.37,2013-01-30 07:03:00,
2013-01-30 01:08:00,52.0,49.7,29.57,SSW,202,0.0,0.0,92,0.08,CLR,,0.08,WeatherDisplay:10.37,2013-01-30 07:08:00,
2013-01-30 01:13:00,52.0,49.7,29.56,SE,135,0.0,0.0,92,0.06,CLR,,0.08,WeatherDisplay:10.37,2013-01-30 07:13:00,
2013-01-30 01:18:00,52.0,50.0,29.54,SE,135,0.0,0.0,93,0.04,CLR,,0.08,WeatherDisplay:10.37,2013-01-30 07:18:00,
2013-01-30 01:23:00,52.0,50.0,29.55,SE,135,0.0,0.0,93,0.04,CLR,,0.08,WeatherDisplay:10.37,2013-01-30 07:23:00,
2013-01-30 01:28:00,51.8,49.8,29.54,SE,135,0.0,0.0,93,0.04,CLR,,0.08,WeatherDisplay:10.37,2013-01-30 07:28:00,
2013-01-30 01:33:00,51.6,49.4,29.54,SE,135,0.0,0.0,92,0.04,CLR,,0.08,WeatherDisplay:10.37,2013-01-30 07:33:00,
2013-01-30 01:38:00,51.6,49.4,29.54,SE,135,0.0,0.0,92,0.02,CLR,,0.08,WeatherDisplay:10.37,2013-01-30 07:38:00,
2013-01-30 01:43:00,51.4,49.2,29.55,SE,135,0.0,0.0,92,0.02,CLR,,0.08,WeatherDisplay:10.37,2013-01-30 07:43:00,
2013-01-30 01:48:00,51.4,49.2,29.56,South,180,0.0,0.0,92,0.02,CLR,,0.08,WeatherDisplay:10.37,2013-01-30 07:48:00,
2013-01-30 01:53:00,51.4,49.2,29.58,South,180,0.0,0.0,92,0.04,RA,,0.12,WeatherDisplay:10.37,2013-01-30 07:53:00,
2013-01-30 01:58:00,51.4,49.2,29.57,South,180,0.0,0.0,92,0.04,RA,,0.12,WeatherDisplay:10.37,2013-01-30 07:58:00,
2013-01-30 02:03:00,51.4,49.2,29.56,South,180,0.0,0.0,92,0.04,,,0.12,WeatherDisplay:10.37,2013-01-30 08:03:00,
2013-01-30 02:08:00,51.3,49.0,29.56,South,180,0.0,0.0,92,0.04,CLR,,0.12,WeatherDisplay:10.37,2013-01-30 08:08:00,
2013-01-30 02:13:00,51.3,49.0,29.56,South,180,0.0,0.0,92,0.06,RA,,0.14,WeatherDisplay:10.37,2013-01-30 08:13:00,
2013-01-30 02:18:00,51.3,49.0,29.55,South,180,0.0,0.0,92,0.08,RA,,0.16,WeatherDisplay:10.37,2013-01-30 08:18:00,
2013-01-30 02:23:00,51.3,49.3,29.57,South,180,0.0,0.0,93,0.08,RA,,0.16,WeatherDisplay:10.37,2013-01-30 08:23:00,
2013-01-30 02:28:00,51.3,49.3,29.58,South,180,0.0,0.0,93,0.08,,,0.16,WeatherDisplay:10.37,2013-01-30 08:28:00,
2013-01-30 02:33:00,51.3,49.3,29.58,SW,225,0.0,0.0,93,0.08,CLR,,0.16,WeatherDisplay:10.37,2013-01-30 08:33:00,
2013-01-30 02:38:00,51.3,49.3,29.57,SSW,202,0.0,0.0,93,0.10,RA,,0.18,WeatherDisplay:10.37,2013-01-30 08:38:00,
2013-01-30 02:43:00,51.3,49.3,29.57,SW,225,0.0,0.0,93,0.10,RA,,0.18,WeatherDisplay:10.37,2013-01-30 08:43:00,
2013-01-30 02:48:00,51.3,49.3,29.57,SSW,202,0.0,0.0,93,0.10,CLR,,0.18,WeatherDisplay:10.37,2013-01-30 08:48:00,
2013-01-30 02:53:00,51.3,49.3,29.57,SSW,202,0.0,0.0,93,0.08,RA,,0.20,WeatherDisplay:10.37,2013-01-30 08:53:00,
2013-01-30 02:58:00,51.3,49.3,29.59,SSW,202,0.0,0.0,93,0.08,RA,,0.20,WeatherDisplay:10.37,2013-01-30 08:58:00,
2013-01-30 03:03:00,51.3,49.3,29.59,SSW,202,0.0,0.0,93,0.10,RA,,0.22,WeatherDisplay:10.37,2013-01-30 09:03:00,
2013-01-30 03:08:00,51.3,49.3,29.59,SW,225,0.0,0.0,93,0.10,RA,,0.22,WeatherDisplay:10.37,2013-01-30 09:08:00,
2013-01-30 03:13:00,51.4,49.5,29.59,WSW,248,0.0,0.0,93,0.08,CLR,,0.22,WeatherDisplay:10.37,2013-01-30 09:13:00,
2013-01-30 03:18:00,51.4,49.5,29.58,West,270,0.0,0.0,93,0.06,CLR,,0.22,WeatherDisplay:10.37,2013-01-30 09:18:00,
2013-01-30 03:23:00,51.1,49.1,29.58,NNE,22,0.0,0.0,93,0.06,CLR,,0.22,WeatherDisplay:10.37,2013-01-30 09:23:00,
2013-01-30 03:28:00,49.1,47.2,29.58,NW,315,0.0,0.0,93,0.08,RA,,0.24,WeatherDisplay:10.37,2013-01-30 09:28:00,
2013-01-30 03:33:00,46.0,45.0,29.58,NNW,338,0.0,0.0,96,0.08,RA,,0.24,WeatherDisplay:10.37,2013-01-30 09:33:00,
2013-01-30 03:38:00,44.2,43.2,29.57,NNW,338,0.0,0.0,96,0.06,CLR,,0.24,WeatherDisplay:10.37,2013-01-30 09:38:00,
2013-01-30 03:43:00,43.0,41.1,29.56,North,0,4.6,4.6,93,0.08,RA,,0.26,WeatherDisplay:10.37,2013-01-30 09:43:00,
2013-01-30 03:48:00,41.0,39.1,29.55,NW,315,3.5,3.5,93,0.08,RA,,0.26,WeatherDisplay:10.37,2013-01-30 09:48:00,
2013-01-30 03:53:00,40.6,38.8,29.54,NNE,22,0.0,0.0,93,0.06,,,0.26,WeatherDisplay:10.37,2013-01-30 09:53:00,
2013-01-30 03:58:00,39.7,37.9,29.55,NNW,338,6.9,6.9,93,0.06,CLR,,0.26,WeatherDisplay:10.37,2013-01-30 09:58:00,
2013-01-30 04:03:00,39.0,37.2,29.51,NE,45,3.6,3.6,93,0.04,CLR,,0.26,WeatherDisplay:10.37,2013-01-30 10:03:00,
2013-01-30 04:08:00,39.0,37.2,29.53,North,0,0.0,0.0,93,0.04,CLR,,0.26,WeatherDisplay:10.37,2013-01-30 10:08:00,
2013-01-30 04:13:00,38.8,37.0,29.52,NNE,22,0.0,0.0,93,0.04,CLR,,0.26,WeatherDisplay:10.37,2013-01-30 10:13:00,
2013-01-30 04:18:00,38.7,36.8,29.49,NE,45,0.0,0.0,93,0.04,CLR,,0.26,WeatherDisplay:10.37,2013-01-30 10:18:00,
2013-01-30 04:23:00,38.5,36.6,29.49,NE,45,0.0,0.0,93,0.04,CLR,,0.26,WeatherDisplay:10.37,2013-01-30 10:23:00,
2013-01-30 04:28:00,38.5,36.6,29.49,NE,45,0.0,0.0,93,0.02,CLR,,0.26,WeatherDisplay:10.37,2013-01-30 10:28:00,
2013-01-30 04:33:00,38.7,36.8,29.49,NNW,338,0.0,0.0,93,0.02,CLR,,0.26,WeatherDisplay:10.37,2013-01-30 10:33:00,
2013-01-30 04:38:00,38.7,36.8,29.51,WNW,292,0.0,0.0,93,0.02,CLR,,0.26,WeatherDisplay:10.37,2013-01-30 10:38:00,
2013-01-30 04:43:00,38.5,36.6,29.52,WNW,292,10.5,10.5,93,0.00,CLR,,0.26,WeatherDisplay:10.37,2013-01-30 10:43:00,
2013-01-30 04:48:00,38.3,36.5,29.54,WNW,292,6.9,6.9,93,0.00,CLR,,0.26,WeatherDisplay:10.37,2013-01-30 10:48:00,
2013-01-30 04:53:00,38.3,36.5,29.56,WNW,292,4.6,4.6,93,0.00,CLR,,0.26,WeatherDisplay:10.37,2013-01-30 10:53:00,
2013-01-30 04:58:00,38.1,36.3,29.57,NW,315,0.0,0.0,93,0.00,CLR,,0.26,WeatherDisplay:10.37,2013-01-30 10:58:00,
2013-01-30 05:03:00,37.9,36.1,29.58,WNW,292,4.7,4.7,93,0.00,CLR,,0.26,WeatherDisplay:10.37,2013-01-30 11:03:00,
2013-01-30 05:08:00,37.9,36.1,29.57,WNW,292,0.0,0.0,93,0.00,CLR,,0.26,WeatherDisplay:10.37,2013-01-30 11:08:00,
2013-01-30 05:13:00,37.8,35.9,29.55,NW,315,6.9,6.9,93,0.00,CLR,,0.26,WeatherDisplay:10.37,2013-01-30 11:13:00,
2013-01-30 05:18:00,37.8,35.9,29.55,WNW,292,0.0,0.0,93,0.00,CLR,,0.26,WeatherDisplay:10.37,2013-01-30 11:18:00,
2013-01-30 05:23:00,37.8,35.9,29.57,WNW,292,0.0,0.0,93,0.00,CLR,,0.26,WeatherDisplay:10.37,2013-01-30 11:23:00,
2013-01-30 05:28:00,37.8,35.9,29.55,NW,315,1.2,1.2,93,0.00,CLR,,0.26,WeatherDisplay:10.37,2013-01-30 11:28:00,
2013-01-30 05:33:00,37.8,35.9,29.55,NNW,338,2.3,2.3,93,0.00,CLR,,0.26,WeatherDisplay:10.37,2013-01-30 11:33:00,
2013-01-30 05:38:00,37.8,35.9,29.53,NE,45,0.0,0.0,93,0.00,CLR,,0.26,WeatherDisplay:10.37,2013-01-30 11:38:00,
2013-01-30 05:43:00,37.8,35.9,29.53,East,90,0.0,0.0,93,0.00,CLR,,0.26,WeatherDisplay:10.37,2013-01-30 11:43:00,
2013-01-30 05:48:00,37.8,35.9,29.51,NNE,22,0.0,0.0,93,0.02,RA,,0.28,WeatherDisplay:10.37,2013-01-30 11:48:00,
2013-01-30 05:53:00,38.1,36.3,29.51,North,0,0.0,0.0,93,0.02,RA,,0.28,WeatherDisplay:10.37,2013-01-30 11:53:00,
2013-01-30 05:58:00,38.1,36.3,29.51,North,0,0.0,0.0,93,0.02,,,0.28,WeatherDisplay:10.37,2013-01-30 11:58:00,
2013-01-30 06:03:00,38.1,36.5,29.51,North,0,0.0,0.0,94,0.02,CLR,,0.28,WeatherDisplay:10.37,2013-01-30 12:03:00,
2013-01-30 06:08:00,38.1,36.5,29.51,North,0,0.0,0.0,94,0.02,CLR,,0.28,WeatherDisplay:10.37,2013-01-30 12:08:00,
2013-01-30 06:13:00,38.1,36.5,29.51,North,0,0.0,0.0,94,0.02,CLR,,0.28,WeatherDisplay:10.37,2013-01-30 12:13:00,
2013-01-30 06:18:00,38.1,36.5,29.51,North,0,0.0,0.0,94,0.02,CLR,,0.28,WeatherDisplay:10.37,2013-01-30 12:18:00,
2013-01-30 06:23:00,38.1,36.5,29.51,North,0,0.0,0.0,94,0.02,CLR,,0.28,WeatherDisplay:10.37,2013-01-30 12:23:00,
2013-01-30 06:28:00,38.1,36.5,29.50,North,0,0.0,0.0,94,0.02,CLR,,0.28,WeatherDisplay:10.37,2013-01-30 12:28:00,
2013-01-30 06:33:00,38.1,36.5,29.50,NNW,338,0.0,0.0,94,0.02,CLR,,0.28,WeatherDisplay:10.37,2013-01-30 12:33:00,
2013-01-30 06:38:00,38.1,36.5,29.51,WNW,292,0.0,0.0,94,0.02,CLR,,0.28,WeatherDisplay:10.37,2013-01-30 12:38:00,
2013-01-30 06:43:00,37.9,36.4,29.51,North,0,0.0,0.0,94,0.02,CLR,,0.28,WeatherDisplay:10.37,2013-01-30 12:43:00,
2013-01-30 06:48:00,38.1,36.5,29.52,WNW,292,0.0,0.0,94,0.00,CLR,,0.28,WeatherDisplay:10.37,2013-01-30 12:48:00,
2013-01-30 06:53:00,37.9,36.4,29.52,NW,315,0.0,0.0,94,0.00,CLR,,0.28,WeatherDisplay:10.37,2013-01-30 12:53:00,
2013-01-30 06:58:00,37.9,36.4,29.52,WNW,292,0.0,0.0,94,0.00,CLR,,0.28,WeatherDisplay:10.37,2013-01-30 12:58:00,
2013-01-30 07:03:00,37.8,36.2,29.51,WNW,292,0.0,0.0,94,0.00,CLR,,0.28,WeatherDisplay:10.37,2013-01-30 13:03:00,
2013-01-30 07:08:00,37.6,36.0,29.52,WNW,292,0.0,0.0,94,0.00,CLR,,0.28,WeatherDisplay:10.37,2013-01-30 13:08:00,
2013-01-30 07:13:00,37.6,36.0,29.52,WNW,292,0.0,0.0,94,0.00,CLR,,0.28,WeatherDisplay:10.37,2013-01-30 13:13:00,
2013-01-30 07:18:00,37.6,36.0,29.52,WNW,292,0.0,0.0,94,0.00,CLR,,0.28,WeatherDisplay:10.37,2013-01-30 13:18:00,
2013-01-30 07:23:00,37.6,36.0,29.53,North,0,1.2,1.2,94,0.00,CLR,,0.28,WeatherDisplay:10.37,2013-01-30 13:23:00,
2013-01-30 07:28:00,37.6,36.0,29.54,NNW,338,0.0,0.0,94,0.00,CLR,,0.28,WeatherDisplay:10.37,2013-01-30 13:28:00,
2013-01-30 07:33:00,37.6,36.0,29.54,WNW,292,0.0,0.0,94,0.00,CLR,,0.28,WeatherDisplay:10.37,2013-01-30 13:33:00,
2013-01-30 07:38:00,37.6,36.0,29.54,WNW,292,0.0,0.0,94,0.00,CLR,,0.28,WeatherDisplay:10.37,2013-01-30 13:38:00,
2013-01-30 07:43:00,37.6,36.0,29.53,WNW,292,0.0,0.0,94,0.02,RA,,0.30,WeatherDisplay:10.37,2013-01-30 13:43:00,
2013-01-30 07:48:00,37.6,36.0,29.54,WNW,292,0.0,0.0,94,0.02,RA,,0.30,WeatherDisplay:10.37,2013-01-30 13:48:00,
2013-01-30 07:53:00,37.6,36.0,29.52,NNW,338,0.0,0.0,94,0.02,CLR,,0.30,WeatherDisplay:10.37,2013-01-30 13:53:00,
2013-01-30 07:58:00,37.6,36.0,29.52,WNW,292,0.0,0.0,94,0.02,CLR,,0.30,WeatherDisplay:10.37,2013-01-30 13:58:00,
2013-01-30 08:03:00,37.6,36.0,29.52,WNW,292,0.0,0.0,94,0.02,CLR,,0.30,WeatherDisplay:10.37,2013-01-30 14:03:00,
2013-01-30 08:08:00,37.6,36.0,29.52,North,0,0.0,0.0,94,0.02,CLR,,0.30,WeatherDisplay:10.37,2013-01-30 14:08:00,
2013-01-30 08:13:00,37.6,36.0,29.52,North,0,0.0,0.0,94,0.02,CLR,,0.30,WeatherDisplay:10.37,2013-01-30 14:13:00,
2013-01-30 08:18:00,37.6,36.0,29.52,North,0,0.0,0.0,94,0.02,CLR,,0.30,WeatherDisplay:10.37,2013-01-30 14:18:00,
2013-01-30 08:23:00,37.6,36.0,29.52,North,0,0.0,0.0,94,0.02,CLR,,0.30,WeatherDisplay:10.37,2013-01-30 14:23:00,
2013-01-30 08:28:00,37.8,36.2,29.51,North,0,0.0,0.0,94,0.02,CLR,,0.30,WeatherDisplay:10.37,2013-01-30 14:28:00,
2013-01-30 08:33:00,37.8,36.2,29.51,North,0,0.0,0.0,94,0.02,CLR,,0.30,WeatherDisplay:10.37,2013-01-30 14:33:00,
2013-01-30 08:38:00,37.8,36.2,29.52,North,0,0.0,0.0,94,0.02,CLR,,0.30,WeatherDisplay:10.37,2013-01-30 14:38:00,
2013-01-30 08:43:00,37.9,36.4,29.52,North,0,0.0,0.0,94,0.00,CLR,,0.30,WeatherDisplay:10.37,2013-01-30 14:43:00,
2013-01-30 08:48:00,37.9,36.4,29.51,North,0,0.0,0.0,94,0.00,CLR,,0.30,WeatherDisplay:10.37,2013-01-30 14:48:00,
2013-01-30 08:53:00,38.1,36.5,29.50,North,0,0.0,0.0,94,0.00,CLR,,0.30,WeatherDisplay:10.37,2013-01-30 14:53:00,
2013-01-30 08:58:00,38.1,36.5,29.49,North,0,0.0,0.0,94,0.00,CLR,,0.30,WeatherDisplay:10.37,2013-01-30 14:58:00,
2013-01-30 09:03:00,38.3,36.7,29.49,North,0,0.0,0.0,94,0.00,CLR,,0.30,WeatherDisplay:10.37,2013-01-30 15:03:00,
2013-01-30 09:08:00,38.3,36.7,29.49,North,0,0.0,0.0,94,0.00,CLR,,0.30,WeatherDisplay:10.37,2013-01-30 15:08:00,
2013-01-30 09:13:00,38.7,37.6,29.49,North,0,0.0,0.0,96,0.00,CLR,,0.30,WeatherDisplay:10.37,2013-01-30 15:13:00,
2013-01-30 09:18:00,38.7,37.6,29.48,North,0,0.0,0.0,96,0.00,CLR,,0.30,WeatherDisplay:10.37,2013-01-30 15:18:00,
2013-01-30 09:23:00,38.8,37.8,29.49,North,0,0.0,0.0,96,0.00,CLR,,0.30,WeatherDisplay:10.37,2013-01-30 15:23:00,
2013-01-30 09:28:00,39.2,38.2,29.49,North,0,0.0,0.0,96,0.00,CLR,,0.30,WeatherDisplay:10.37,2013-01-30 15:28:00,
2013-01-30 09:33:00,39.2,38.2,29.49,North,0,0.0,0.0,96,0.00,CLR,,0.30,WeatherDisplay:10.37,2013-01-30 15:33:00,
2013-01-30 09:38:00,39.2,38.2,29.49,North,0,0.0,0.0,96,0.00,CLR,,0.30,WeatherDisplay:10.37,2013-01-30 15:38:00,
2013-01-30 09:43:00,39.0,38.0,29.49,North,0,0.0,0.0,96,0.00,CLR,,0.30,WeatherDisplay:10.37,2013-01-30 15:43:00,
2013-01-30 09:48:00,39.0,38.0,29.49,South,180,0.0,0.0,96,0.00,CLR,,0.30,WeatherDisplay:10.37,2013-01-30 15:48:00,
2013-01-30 09:53:00,39.2,38.2,29.48,SSE,158,0.0,0.0,96,0.00,CLR,,0.30,WeatherDisplay:10.37,2013-01-30 15:53:00,
2013-01-30 09:58:00,39.4,38.3,29.47,SSE,158,0.0,0.0,96,0.02,RA,,0.32,WeatherDisplay:10.37,2013-01-30 15:58:00,
2013-01-30 10:03:00,39.4,38.3,29.47,SSE,158,0.0,0.0,96,0.02,RA,,0.32,WeatherDisplay:10.37,2013-01-30 16:03:00,
2013-01-30 10:08:00,39.6,38.5,29.46,East,90,0.0,0.0,96,0.02,,,0.32,WeatherDisplay:10.37,2013-01-30 16:08:00,
2013-01-30 10:13:00,39.6,38.5,29.46,ESE,112,0.0,0.0,96,0.02,CLR,,0.32,WeatherDisplay:10.37,2013-01-30 16:13:00,
2013-01-30 10:18:00,39.9,38.9,29.46,ESE,112,0.0,0.0,96,0.02,CLR,,0.32,WeatherDisplay:10.37,2013-01-30 16:18:00,
2013-01-30 10:23:00,40.1,39.1,29.44,SE,135,0.0,0.0,96,0.02,CLR,,0.32,WeatherDisplay:10.37,2013-01-30 16:23:00,
2013-01-30 10:28:00,39.9,38.9,29.45,East,90,0.0,0.0,96,0.02,CLR,,0.32,WeatherDisplay:10.37,2013-01-30 16:28:00,
2013-01-30 10:33:00,39.9,38.9,29.45,ESE,112,0.0,0.0,96,0.02,CLR,,0.32,WeatherDisplay:10.37,2013-01-30 16:33:00,
2013-01-30 10:38:00,39.9,38.9,29.45,ESE,112,0.0,0.0,96,0.02,CLR,,0.32,WeatherDisplay:10.37,2013-01-30 16:38:00,
2013-01-30 10:43:00,39.9,38.9,29.44,SE,135,0.0,0.0,96,0.02,CLR,,0.32,WeatherDisplay:10.37,2013-01-30 16:43:00,
2013-01-30 10:48:00,40.3,39.2,29.43,SSE,158,0.0,0.0,96,0.02,CLR,,0.32,WeatherDisplay:10.37,2013-01-30 16:48:00,
2013-01-30 10:53:00,40.6,39.6,29.43,SSE,158,0.0,0.0,96,0.02,CLR,,0.32,WeatherDisplay:10.37,2013-01-30 16:53:00,
2013-01-30 10:58:00,40.8,39.8,29.43,SSE,158,0.0,0.0,96,0.00,CLR,,0.32,WeatherDisplay:10.37,2013-01-30 16:58:00,
2013-01-30 11:03:00,41.4,40.3,29.43,SSE,158,3.5,0.0,96,0.00,CLR,,0.32,WeatherDisplay:10.37,2013-01-30 17:03:00,
2013-01-30 11:08:00,41.7,40.7,29.43,SSE,158,0.0,0.0,96,0.00,CLR,,0.32,WeatherDisplay:10.37,2013-01-30 17:08:00,
2013-01-30 11:13:00,42.3,41.2,29.43,ENE,68,0.0,2.1,96,0.00,CLR,,0.32,WeatherDisplay:10.37,2013-01-30 17:13:00,
2013-01-30 11:18:00,42.4,41.4,29.42,ENE,68,0.0,0.0,96,0.00,CLR,,0.32,WeatherDisplay:10.37,2013-01-30 17:18:00,
2013-01-30 11:23:00,42.6,41.6,29.42,SSE,158,2.3,2.3,96,0.00,CLR,,0.32,WeatherDisplay:10.37,2013-01-30 17:23:00,
2013-01-30 11:28:00,43.0,41.9,29.42,South,180,0.0,0.0,96,0.00,CLR,,0.32,WeatherDisplay:10.37,2013-01-30 17:28:00,
2013-01-30 11:33:00,43.3,42.3,29.42,South,180,3.8,3.8,96,0.00,CLR,,0.32,WeatherDisplay:10.37,2013-01-30 17:33:00,
2013-01-30 11:38:00,43.7,42.6,29.41,South,180,0.0,0.0,96,0.00,CLR,,0.32,WeatherDisplay:10.37,2013-01-30 17:38:00,
2013-01-30 11:43:00,44.6,43.5,29.40,South,180,4.7,4.7,96,0.00,CLR,,0.32,WeatherDisplay:10.37,2013-01-30 17:43:00,
2013-01-30 11:48:00,45.1,44.1,29.40,South,180,1.3,1.3,96,0.00,CLR,,0.32,WeatherDisplay:10.37,2013-01-30 17:48:00,
2013-01-30 11:53:00,45.9,44.8,29.40,North,0,2.3,2.3,96,0.00,CLR,,0.32,WeatherDisplay:10.37,2013-01-30 17:53:00,
2013-01-30 11:58:00,46.8,45.7,29.40,South,180,4.7,4.7,96,0.00,CLR,,0.32,WeatherDisplay:10.37,2013-01-30 17:58:00,
2013-01-30 12:03:00,47.8,46.8,29.39,SSW,202,10.4,10.4,96,0.00,CLR,,0.32,WeatherDisplay:10.37,2013-01-30 18:03:00,
2013-01-30 12:08:00,48.7,47.7,29.39,SSW,202,6.9,6.9,96,0.00,CLR,,0.32,WeatherDisplay:10.37,2013-01-30 18:08:00,
2013-01-30 12:13:00,49.5,48.4,29.39,SSW,202,8.1,9.1,96,0.00,CLR,,0.32,WeatherDisplay:10.37,2013-01-30 18:13:00,
2013-01-30 12:18:00,49.6,48.0,29.40,SW,225,11.5,11.8,94,0.00,CLR,,0.32,WeatherDisplay:10.37,2013-01-30 18:18:00,
2013-01-30 12:23:00,49.8,48.2,29.39,SW,225,10.4,10.7,94,0.00,CLR,,0.32,WeatherDisplay:10.37,2013-01-30 18:23:00,
2013-01-30 12:28:00,49.6,47.7,29.38,SSW,202,11.5,11.5,93,0.00,CLR,,0.32,WeatherDisplay:10.37,2013-01-30 18:28:00,
2013-01-30 12:33:00,49.8,47.3,29.38,SW,225,6.9,6.9,91,0.00,CLR,,0.32,WeatherDisplay:10.37,2013-01-30 18:33:00,
2013-01-30 12:38:00,49.8,47.0,29.39,SSW,202,8.1,8.1,90,0.00,CLR,,0.32,WeatherDisplay:10.37,2013-01-30 18:38:00,
2013-01-30 12:43:00,49.6,46.2,29.39,SSW,202,6.9,6.9,88,0.00,CLR,,0.32,WeatherDisplay:10.37,2013-01-30 18:43:00,
2013-01-30 12:48:00,49.5,45.1,29.40,SW,225,13.8,13.8,85,0.00,CLR,,0.32,WeatherDisplay:10.37,2013-01-30 18:48:00,
2013-01-30 12:53:00,48.9,43.7,29.40,SW,225,17.4,17.4,82,0.00,CLR,,0.32,WeatherDisplay:10.37,2013-01-30 18:53:00,
2013-01-30 12:58:00,47.8,42.3,29.40,WSW,248,15.0,15.0,81,0.00,CLR,,0.32,WeatherDisplay:10.37,2013-01-30 18:58:00,
2013-01-30 13:03:00,47.1,41.3,29.40,SSW,202,13.8,13.8,80,0.00,CLR,,0.32,WeatherDisplay:10.37,2013-01-30 19:03:00,
2013-01-30 13:08:00,45.7,39.2,29.40,NW,315,8.1,8.1,78,0.00,CLR,,0.32,WeatherDisplay:10.37,2013-01-30 19:08:00,
2013-01-30 13:14:00,45.0,38.5,29.39,SSW,202,10.4,11.2,78,0.00,CLR,,0.32,WeatherDisplay:10.37,2013-01-30 19:14:00,
2013-01-30 13:19:00,44.2,37.8,29.40,SW,225,11.5,11.5,78,0.00,CLR,,0.32,WeatherDisplay:10.37,2013-01-30 19:19:00,
2013-01-30 13:24:00,43.3,36.9,29.40,SW,225,9.2,9.2,78,0.00,CLR,,0.32,WeatherDisplay:10.37,2013-01-30 19:24:00,
2013-01-30 13:29:00,43.0,36.9,29.41,West,270,15.0,15.0,79,0.00,CLR,,0.32,WeatherDisplay:10.37,2013-01-30 19:29:00,
2013-01-30 13:34:00,41.9,35.9,29.41,SSW,202,10.4,11.3,79,0.00,CLR,,0.32,WeatherDisplay:10.37,2013-01-30 19:34:00,
2013-01-30 13:39:00,41.0,35.3,29.42,NNW,338,10.5,10.5,80,0.00,CLR,,0.32,WeatherDisplay:10.37,2013-01-30 19:39:00,
2013-01-30 13:44:00,40.6,35.0,29.42,SW,225,11.5,11.5,80,0.00,CLR,,0.32,WeatherDisplay:10.37,2013-01-30 19:44:00,
2013-01-30 13:49:00,40.5,34.8,29.41,SSW,202,6.9,7.5,80,0.00,CLR,,0.32,WeatherDisplay:10.37,2013-01-30 19:49:00,
2013-01-30 13:54:00,40.3,34.3,29.42,WNW,292,13.8,13.8,79,0.00,CLR,,0.32,WeatherDisplay:10.37,2013-01-30 19:54:00,
2013-01-30 13:59:00,40.1,34.1,29.42,SSW,202,10.4,10.4,79,0.00,CLR,,0.32,WeatherDisplay:10.37,2013-01-30 19:59:00,
2013-01-30 14:04:00,40.1,34.1,29.42,SSW,202,8.1,8.1,79,0.00,CLR,,0.32,WeatherDisplay:10.37,2013-01-30 20:04:00,
2013-01-30 14:09:00,40.3,34.3,29.42,SSW,202,11.5,11.5,79,0.00,CLR,,0.32,WeatherDisplay:10.37,2013-01-30 20:09:00,
2013-01-30 14:14:00,39.9,33.6,29.43,WNW,292,10.4,10.4,78,0.00,CLR,,0.32,WeatherDisplay:10.37,2013-01-30 20:14:00,
2013-01-30 14:19:00,39.7,33.4,29.43,NW,315,12.3,12.3,78,0.00,CLR,,0.32,WeatherDisplay:10.37,2013-01-30 20:19:00,
2013-01-30 14:24:00,39.7,32.8,29.42,SW,225,11.5,11.5,76,0.00,CLR,,0.32,WeatherDisplay:10.37,2013-01-30 20:24:00,
2013-01-30 14:29:00,39.9,32.6,29.41,WSW,248,11.5,11.5,75,0.00,CLR,,0.32,WeatherDisplay:10.37,2013-01-30 20:29:00,
2013-01-30 14:34:00,39.9,32.6,29.41,SW,225,9.2,9.2,75,0.00,CLR,,0.32,WeatherDisplay:10.37,2013-01-30 20:34:00,
2013-01-30 14:39:00,40.1,32.5,29.42,NW,315,10.4,10.4,74,0.00,CLR,,0.32,WeatherDisplay:10.37,2013-01-30 20:39:00,
2013-01-30 14:44:00,39.9,32.3,29.41,North,0,8.1,8.1,74,0.00,CLR,,0.32,WeatherDisplay:10.37,2013-01-30 20:44:00,
2013-01-30 14:49:00,40.1,32.5,29.42,NW,315,6.7,6.7,74,0.00,CLR,,0.32,WeatherDisplay:10.37,2013-01-30 20:49:00,
2013-01-30 14:54:00,39.9,32.3,29.42,SW,225,10.4,10.4,74,0.00,CLR,,0.32,WeatherDisplay:10.37,2013-01-30 20:54:00,
2013-01-30 14:59:00,39.9,32.0,29.42,SSW,202,11.5,11.5,73,0.00,CLR,,0.32,WeatherDisplay:10.37,2013-01-30 20:59:00,
2013-01-30 15:04:00,39.9,32.0,29.43,SSW,202,6.9,6.9,73,0.00,CLR,,0.32,WeatherDisplay:10.37,2013-01-30 21:04:00,
2013-01-30 15:09:00,39.9,32.0,29.43,SW,225,8.1,8.1,73,0.00,CLR,,0.32,WeatherDisplay:10.37,2013-01-30 21:09:00,
2013-01-30 15:14:00,39.9,32.0,29.43,NNW,338,8.1,8.1,73,0.00,CLR,,0.32,WeatherDisplay:10.37,2013-01-30 21:14:00,
2013-01-30 15:19:00,39.2,31.3,29.43,SSW,202,8.3,0.0,73,0.00,CLR,,0.32,WeatherDisplay:10.37,2013-01-30 21:19:00,
2013-01-30 15:24:00,39.4,32.1,29.43,SSW,202,10.4,10.4,75,0.00,CLR,,0.32,WeatherDisplay:10.37,2013-01-30 21:24:00,
2013-01-30 15:29:00,39.2,31.9,29.45,WSW,248,8.1,8.1,75,0.00,CLR,,0.32,WeatherDisplay:10.37,2013-01-30 21:29:00,
2013-01-30 15:34:00,39.0,32.1,29.45,SSW,202,9.6,9.6,76,0.00,CLR,,0.32,WeatherDisplay:10.37,2013-01-30 21:34:00,
2013-01-30 15:39:00,38.8,31.9,29.44,SW,225,7.2,7.2,76,0.00,CLR,,0.32,WeatherDisplay:10.37,2013-01-30 21:39:00,
2013-01-30 15:44:00,38.7,31.7,29.44,SSW,202,6.9,6.9,76,0.00,CLR,,0.32,WeatherDisplay:10.37,2013-01-30 21:44:00,
2013-01-30 15:49:00,38.7,31.7,29.44,SW,225,9.2,9.2,76,0.00,CLR,,0.32,WeatherDisplay:10.37,2013-01-30 21:49:00,
2013-01-30 15:54:00,38.5,31.6,29.44,SW,225,10.4,10.4,76,0.00,CLR,,0.32,WeatherDisplay:10.37,2013-01-30 21:54:00,
2013-01-30 15:59:00,38.3,31.4,29.44,West,270,6.9,6.9,76,0.00,CLR,,0.32,WeatherDisplay:10.37,2013-01-30 21:59:00,
2013-01-30 16:04:00,38.3,31.4,29.44,West,270,8.1,8.1,76,0.00,CLR,,0.32,WeatherDisplay:10.37,2013-01-30 22:04:00,
2013-01-30 16:09:00,38.1,31.2,29.46,NW,315,2.3,2.3,76,0.00,CLR,,0.32,WeatherDisplay:10.37,2013-01-30 22:09:00,
2013-01-30 16:14:00,38.1,30.6,29.47,NNW,338,6.0,6.0,74,0.00,CLR,,0.32,WeatherDisplay:10.37,2013-01-30 22:14:00,
2013-01-30 16:19:00,35.8,27.6,29.47,WNW,292,10.4,10.4,72,0.00,CLR,,0.32,WeatherDisplay:10.37,2013-01-30 22:19:00,
2013-01-30 16:24:00,34.5,26.4,29.48,WNW,292,10.5,10.5,72,0.00,CLR,,0.32,WeatherDisplay:10.37,2013-01-30 22:24:00,
2013-01-30 16:29:00,33.4,25.7,29.47,WNW,292,3.5,3.5,73,0.00,CLR,,0.32,WeatherDisplay:10.37,2013-01-30 22:29:00,
2013-01-30 16:34:00,32.7,25.7,29.48,North,0,10.4,10.4,75,0.00,CLR,,0.32,WeatherDisplay:10.37,2013-01-30 22:34:00,
2013-01-30 16:39:00,32.2,25.5,29.48,WNW,292,5.8,5.8,76,0.00,CLR,,0.32,WeatherDisplay:10.37,2013-01-30 22:39:00,
2013-01-30 16:44:00,31.8,25.4,29.49,North,0,5.8,6.0,77,0.00,CLR,,0.32,WeatherDisplay:10.37,2013-01-30 22:44:00,
2013-01-30 16:49:00,31.3,25.2,29.49,NNW,338,8.1,8.1,78,0.00,CLR,,0.32,WeatherDisplay:10.37,2013-01-30 22:49:00,
2013-01-30 16:54:00,30.9,25.2,29.50,WNW,292,3.5,3.5,79,0.00,CLR,,0.32,WeatherDisplay:10.37,2013-01-30 22:54:00,
2013-01-30 16:59:00,30.9,25.2,29.50,WNW,292,8.1,8.1,79,0.00,CLR,,0.32,WeatherDisplay:10.37,2013-01-30 22:59:00,
2013-01-30 17:04:00,30.7,25.3,29.50,NW,315,0.0,0.0,80,0.00,CLR,,0.32,WeatherDisplay:10.37,2013-01-30 23:04:00,
2013-01-30 17:09:00,30.7,25.3,29.51,WNW,292,0.0,0.0,80,0.00,CLR,,0.32,WeatherDisplay:10.37,2013-01-30 23:09:00,
2013-01-30 17:14:00,30.6,25.4,29.51,WNW,292,2.3,2.3,81,0.00,CLR,,0.32,WeatherDisplay:10.37,2013-01-30 23:14:00,
2013-01-30 17:19:00,30.7,25.9,29.52,WNW,292,6.9,6.9,82,0.00,CLR,,0.32,WeatherDisplay:10.37,2013-01-30 23:19:00,
2013-01-30 17:24:00,30.7,25.9,29.52,NW,315,5.8,5.8,82,0.00,CLR,,0.32,WeatherDisplay:10.37,2013-01-30 23:24:00,
2013-01-30 17:29:00,30.7,25.9,29.53,West,270,4.6,4.6,82,0.00,CLR,,0.32,WeatherDisplay:10.37,2013-01-30 23:29:00,
2013-01-30 17:34:00,30.4,25.5,29.54,WNW,292,6.9,6.9,82,0.00,CLR,,0.32,WeatherDisplay:10.37,2013-01-30 23:34:00,
2013-01-30 17:39:00,30.2,25.1,29.54,WNW,292,4.9,4.9,81,0.00,CLR,,0.32,WeatherDisplay:10.37,2013-01-30 23:39:00,
2013-01-30 17:44:00,29.8,24.7,29.54,WNW,292,0.0,0.0,81,0.00,CLR,,0.32,WeatherDisplay:10.37,2013-01-30 23:44:00,
2013-01-30 17:49:00,29.7,24.5,29.55,WNW,292,5.8,5.8,81,0.00,CLR,,0.32,WeatherDisplay:10.37,2013-01-30 23:49:00,
2013-01-30 17:54:00,29.7,24.2,29.55,WNW,292,10.7,10.7,80,0.00,CLR,,0.32,WeatherDisplay:10.37,2013-01-30 23:54:00,
2013-01-30 17:59:00,29.7,23.9,29.55,WNW,292,7.6,7.6,79,0.00,CLR,,0.32,WeatherDisplay:10.37,2013-01-30 23:59:00,
2013-01-30 18:04:00,29.7,23.9,29.56,West,270,5.1,5.1,79,0.00,CLR,,0.32,WeatherDisplay:10.37,2013-01-31 00:04:00,
2013-01-30 18:09:00,29.8,23.8,29.56,WNW,292,1.6,1.6,78,0.00,CLR,,0.32,WeatherDisplay:10.37,2013-01-31 00:09:00,
2013-01-30 18:14:00,29.8,23.5,29.57,West,270,3.5,3.6,77,0.00,CLR,,0.32,WeatherDisplay:10.37,2013-01-31 00:14:00,
2013-01-30 18:19:00,29.8,23.5,29.57,WNW,292,5.8,5.8,77,0.00,CLR,,0.32,WeatherDisplay:10.37,2013-01-31 00:19:00,
2013-01-30 18:24:00,29.8,23.2,29.58,West,270,0.0,0.2,76,0.00,CLR,,0.32,WeatherDisplay:10.37,2013-01-31 00:24:00,
2013-01-30 18:29:00,29.8,22.9,29.58,West,270,10.4,10.4,75,0.00,CLR,,0.32,WeatherDisplay:10.37,2013-01-31 00:29:00,
2013-01-30 18:34:00,29.8,22.9,29.59,West,270,6.9,6.9,75,0.00,CLR,,0.32,WeatherDisplay:10.37,2013-01-31 00:34:00,
2013-01-30 18:39:00,29.8,22.9,29.59,WNW,292,9.6,9.6,75,0.00,CLR,,0.32,WeatherDisplay:10.37,2013-01-31 00:39:00,
2013-01-30 18:44:00,29.7,22.4,29.60,WNW,292,3.5,3.5,74,0.00,CLR,,0.32,WeatherDisplay:10.37,2013-01-31 00:44:00,
2013-01-30 18:49:00,29.7,22.1,29.60,NW,315,8.1,8.1,73,0.00,CLR,,0.32,WeatherDisplay:10.37,2013-01-31 00:49:00,
2013-01-30 18:54:00,29.5,21.9,29.60,WNW,292,3.5,3.5,73,0.00,CLR,,0.32,WeatherDisplay:10.37,2013-01-31 00:54:00,
2013-01-30 18:59:00,29.3,21.7,29.60,WNW,292,3.5,3.5,73,0.00,CLR,,0.32,WeatherDisplay:10.37,2013-01-31 00:59:00,
2013-01-30 19:04:00,29.3,22.0,29.60,WNW,292,4.6,4.6,74,0.00,CLR,,0.32,WeatherDisplay:10.37,2013-01-31 01:04:00,
2013-01-30 19:09:00,29.3,22.0,29.60,NW,315,2.3,2.3,74,0.00,CLR,,0.32,WeatherDisplay:10.37,2013-01-31 01:09:00,
2013-01-30 19:14:00,29.1,22.2,29.61,WSW,248,0.0,0.7,75,0.00,CLR,,0.32,WeatherDisplay:10.37,2013-01-31 01:14:00,
2013-01-30 19:19:00,29.1,22.2,29.61,West,270,4.6,4.6,75,0.00,CLR,,0.32,WeatherDisplay:10.37,2013-01-31 01:19:00,
2013-01-30 19:24:00,29.1,21.9,29.61,WNW,292,1.8,1.8,74,0.00,CLR,,0.32,WeatherDisplay:10.37,2013-01-31 01:24:00,
2013-01-30 19:29:00,28.9,21.7,29.62,West,270,9.2,9.2,74,0.00,CLR,,0.32,WeatherDisplay:10.37,2013-01-31 01:29:00,
2013-01-30 19:34:00,28.9,21.7,29.62,WNW,292,6.9,0.0,74,0.00,CLR,,0.32,WeatherDisplay:10.37,2013-01-31 01:34:00,
2013-01-30 19:39:00,28.8,21.5,29.62,West,270,5.8,5.8,74,0.00,CLR,,0.32,WeatherDisplay:10.37,2013-01-31 01:39:00,
2013-01-30 19:44:00,28.6,21.3,29.62,WNW,292,3.5,3.5,74,0.00,CLR,,0.32,WeatherDisplay:10.37,2013-01-31 01:44:00,
2013-01-30 19:49:00,28.6,21.3,29.62,WSW,248,4.9,4.9,74,0.00,CLR,,0.32,WeatherDisplay:10.37,2013-01-31 01:49:00,
2013-01-30 19:54:00,28.6,21.7,29.62,NW,315,6.9,6.9,75,0.00,CLR,,0.32,WeatherDisplay:10.37,2013-01-31 01:54:00,
2013-01-30 19:59:00,28.6,21.3,29.62,West,270,2.7,2.7,74,0.00,CLR,,0.32,WeatherDisplay:10.37,2013-01-31 01:59:00,
2013-01-30 20:04:00,28.6,21.3,29.63,WSW,248,4.6,4.6,74,0.00,CLR,,0.32,WeatherDisplay:10.37,2013-01-31 02:04:00,
2013-01-30 20:09:00,28.6,21.3,29.63,WSW,248,8.3,8.3,74,0.00,CLR,,0.32,WeatherDisplay:10.37,2013-01-31 02:09:00,
2013-01-30 20:14:00,28.2,20.7,29.64,West,270,5.8,5.8,73,0.00,CLR,,0.32,WeatherDisplay:10.37,2013-01-31 02:14:00,
2013-01-30 20:19:00,27.9,20.3,29.64,West,270,6.9,6.9,73,0.00,CLR,,0.32,WeatherDisplay:10.37,2013-01-31 02:19:00,
2013-01-30 20:24:00,27.9,20.0,29.64,NW,315,12.7,12.7,72,0.00,CLR,,0.32,WeatherDisplay:10.37,2013-01-31 02:24:00,
2013-01-30 20:29:00,27.5,19.7,29.65,WSW,248,6.0,6.0,72,0.00,CLR,,0.32,WeatherDisplay:10.37,2013-01-31 02:29:00,
2013-01-30 20:34:00,27.5,19.3,29.65,WNW,292,8.3,8.3,71,0.00,CLR,,0.32,WeatherDisplay:10.37,2013-01-31 02:34:00,
2013-01-30 20:39:00,27.3,19.2,29.66,West,270,1.6,1.6,71,0.00,CLR,,0.32,WeatherDisplay:10.37,2013-01-31 02:39:00,
2013-01-30 20:44:00,27.1,19.0,29.66,West,270,5.8,5.8,71,0.00,CLR,,0.32,WeatherDisplay:10.37,2013-01-31 02:44:00,
2013-01-30 20:49:00,27.0,18.8,29.66,WNW,292,9.2,9.2,71,0.00,CLR,,0.32,WeatherDisplay:10.37,2013-01-31 02:49:00,
2013-01-30 20:54:00,26.8,18.6,29.67,NW,315,5.8,5.8,71,0.00,CLR,,0.32,WeatherDisplay:10.37,2013-01-31 02:54:00,
2013-01-30 20:59:00,26.8,19.0,29.67,WSW,248,6.9,0.0,72,0.00,CLR,,0.32,WeatherDisplay:10.37,2013-01-31 02:59:00,
2013-01-30 21:04:00,26.8,19.0,29.67,WSW,248,9.4,9.4,72,0.00,CLR,,0.32,WeatherDisplay:10.37,2013-01-31 03:04:00,
2013-01-30 21:09:00,26.4,18.6,29.68,West,270,8.5,8.5,72,0.00,CLR,,0.32,WeatherDisplay:10.37,2013-01-31 03:09:00,
2013-01-30 21:14:00,26.1,18.3,29.67,WSW,248,11.5,11.5,72,0.00,CLR,,0.32,WeatherDisplay:10.37,2013-01-31 03:14:00,
2013-01-30 21:19:00,25.7,17.9,29.69,West,270,15.0,15.0,72,0.00,CLR,,0.32,WeatherDisplay:10.37,2013-01-31 03:19:00,
2013-01-30 21:24:00,25.3,16.9,29.69,West,270,16.1,16.1,70,0.00,CLR,,0.32,WeatherDisplay:10.37,2013-01-31 03:24:00,
2013-01-30 21:29:00,25.2,16.4,29.70,WSW,248,9.2,9.2,69,0.00,CLR,,0.32,WeatherDisplay:10.37,2013-01-31 03:29:00,
2013-01-30 21:34:00,24.8,16.1,29.70,West,270,4.9,4.9,69,0.00,CLR,,0.32,WeatherDisplay:10.37,2013-01-31 03:34:00,
2013-01-30 21:39:00,24.6,15.6,29.70,West,270,16.1,16.1,68,0.00,CLR,,0.32,WeatherDisplay:10.37,2013-01-31 03:39:00,
2013-01-30 21:44:00,24.4,15.4,29.71,West,270,6.9,6.9,68,0.00,CLR,,0.32,WeatherDisplay:10.37,2013-01-31 03:44:00,
2013-01-30 21:49:00,24.4,15.4,29.71,West,270,4.6,5.1,68,0.00,CLR,,0.32,WeatherDisplay:10.37,2013-01-31 03:49:00,
2013-01-30 21:54:00,24.3,14.9,29.71,WNW,292,6.9,6.9,67,0.00,CLR,,0.32,WeatherDisplay:10.37,2013-01-31 03:54:00,
2013-01-30 21:59:00,24.1,14.4,29.72,WNW,292,4.0,4.0,66,0.00,CLR,,0.32,WeatherDisplay:10.37,2013-01-31 03:59:00,
2013-01-30 22:04:00,23.9,13.8,29.72,WNW,292,3.5,3.5,65,0.00,CLR,,0.32,WeatherDisplay:10.37,2013-01-31 04:04:00,
2013-01-30 22:09:00,23.9,13.8,29.73,West,270,1.2,2.1,65,0.00,CLR,,0.32,WeatherDisplay:10.37,2013-01-31 04:09:00,
2013-01-30 22:14:00,23.7,13.7,29.73,WNW,292,12.7,12.7,65,0.00,CLR,,0.32,WeatherDisplay:10.37,2013-01-31 04:14:00,
2013-01-30 22:19:00,23.7,13.7,29.73,WSW,248,11.5,11.5,65,0.00,CLR,,0.32,WeatherDisplay:10.37,2013-01-31 04:19:00,
2013-01-30 22:24:00,23.4,13.0,29.73,SW,225,11.5,12.0,64,0.00,CLR,,0.32,WeatherDisplay:10.37,2013-01-31 04:24:00,
2013-01-30 22:29:00,23.2,12.8,29.73,WNW,292,8.3,8.3,64,0.00,CLR,,0.32,WeatherDisplay:10.37,2013-01-31 04:29:00,
2013-01-30 22:34:00,23.0,12.3,29.74,SW,225,10.4,10.7,63,0.00,CLR,,0.32,WeatherDisplay:10.37,2013-01-31 04:34:00,
2013-01-30 22:39:00,22.8,11.7,29.74,WSW,248,11.5,11.5,62,0.00,CLR,,0.32,WeatherDisplay:10.37,2013-01-31 04:39:00,
2013-01-30 22:44:00,22.6,11.6,29.74,WNW,292,13.0,13.0,62,0.00,CLR,,0.32,WeatherDisplay:10.37,2013-01-31 04:44:00,
2013-01-30 22:49:00,22.6,11.9,29.75,WSW,248,11.5,11.5,63,0.00,CLR,,0.32,WeatherDisplay:10.37,2013-01-31 04:49:00,
2013-01-30 22:54:00,22.5,11.8,29.75,WNW,292,9.2,9.2,63,0.00,CLR,,0.32,WeatherDisplay:10.37,2013-01-31 04:54:00,
2013-01-30 22:59:00,22.5,11.4,29.75,WNW,292,0.0,0.0,62,0.00,CLR,,0.32,WeatherDisplay:10.37,2013-01-31 04:59:00,
2013-01-30 23:00:00,22.4,11.4,29.75,West,269,0.0,22.0,62,0.00,CLR,,0.32,WeatherDisplay:10.37,2013-01-31 05:00:00,
2013-01-30 23:01:00,22.3,11.2,29.75,West,270,19.6,0.0,62,0.00,CLR,,0.32,WeatherDisplay:10.37,2013-01-31 05:01:00,
2013-01-30 23:06:00,22.3,10.9,29.76,West,270,19.6,19.6,61,0.00,CLR,,0.32,WeatherDisplay:10.37,2013-01-31 05:06:00,
2013-01-30 23:08:00,22.1,10.7,29.76,NW,315,17.3,17.3,61,0.00,CLR,,0.32,WeatherDisplay:10.37,2013-01-31 05:08:00,
2013-01-30 23:13:00,22.1,10.7,29.76,West,270,9.2,9.2,61,0.00,CLR,,0.32,WeatherDisplay:10.37,2013-01-31 05:13:00,
2013-01-30 23:18:00,22.1,10.7,29.77,West,270,6.0,6.0,61,0.00,CLR,,0.32,WeatherDisplay:10.37,2013-01-31 05:18:00,
2013-01-30 23:23:00,22.1,11.1,29.77,SW,225,0.0,0.0,62,0.00,CLR,,0.32,WeatherDisplay:10.37,2013-01-31 05:23:00,
2013-01-30 23:28:00,21.9,11.2,29.78,WSW,248,9.2,9.2,63,0.00,CLR,,0.32,WeatherDisplay:10.37,2013-01-31 05:28:00,
2013-01-30 23:33:00,21.9,11.2,29.78,SW,225,15.0,15.0,63,0.00,CLR,,0.32,WeatherDisplay:10.37,2013-01-31 05:33:00,
2013-01-30 23:38:00,21.6,10.9,29.78,SW,225,11.5,11.5,63,0.00,CLR,,0.32,WeatherDisplay:10.37,2013-01-31 05:38:00,
2013-01-30 23:43:00,21.4,10.7,29.78,West,270,6.9,6.9,63,0.00,CLR,,0.32,WeatherDisplay:10.37,2013-01-31 05:43:00,
2013-01-30 23:48:00,21.0,10.4,29.79,WNW,292,11.5,11.5,63,0.00,CLR,,0.32,WeatherDisplay:10.37,2013-01-31 05:48:00,
2013-01-30 23:53:00,21.0,10.0,29.80,West,270,9.4,9.4,62,0.00,CLR,,0.32,WeatherDisplay:10.37,2013-01-31 05:53:00,
2013-01-30 23:58:00,20.8,10.2,29.80,WSW,248,2.3,2.3,63,0.00,CLR,,0.32,WeatherDisplay:10.37,2013-01-31 05:58:00,